[[{"header":{"parameterUnit":"m.s-1","parameterCategory":1,"la1":30.2991,"la2":30.254,"lo1":-89.0895,"lo2":-89.0444,"dy":0.0017,"dx":0.0017,"nx":28,"ny":28,"refTime":"2025-04-09T03:00:00:Z","depth":0,"parameterNumber":2,"parameterNumberName":"U-component_of_WINDS"},"data":[0,0,0,0,0,0,0,0,0,0,0,0,0,0,0,0,0,0,0,0,0,0,0,0,0,0,0,0,0,0,0,0,0,0,0,0,0,0,0,0,0,0,0,0,0,0,0,0,0,0,0,0,0,0,0,0,0,0,1.8096,1.8097,0,1.8182,1.8183,1.8184,1.8209,1.8209,1.8209,1.8208,1.8297,1.83,1.8303,0,0,0,0,0,0,0,0,0,0,0,0,0,1.7957,1.796,1.8096,1.8097,1.8099,1.8182,1.8183,1.8184,1.821,1.8209,1.8208,1.8208,1.8296,1.83,1.8303,0,0,0,0,0,0,0,0,0,0,0,0,0,1.8028,1.796,1.8096,1.8121,1.8124,1.8182,1.8183,1.8185,1.821,1.8209,1.8208,1.8208,1.8295,1.8299,1.8304,1.8343,0,0,1.8316,1.8318,0,0,0,0,0,0,0,0,1.8024,1.8033,1.8116,1.8119,1.8123,1.8184,1.8167,1.8238,1.821,1.8177,1.8208,1.8207,1.826,1.8267,1.8285,1.8347,1.8351,1.8317,1.8319,1.8321,1.8322,0,0,0,0,0,0,0,1.8019,1.8029,1.813,1.8118,1.8122,1.8129,1.8138,1.8181,1.8222,1.818,1.8182,1.8192,1.8262,1.8281,1.8287,1.8352,1.8317,1.832,1.8323,1.8325,1.8454,1.8455,0,0,0,0,0,0,1.8009,1.8025,1.8128,1.8133,1.8071,1.8132,1.8142,1.8165,1.8221,1.8229,1.8192,1.8193,1.8274,1.8282,1.8291,1.8342,1.8321,1.8325,1.8327,1.8453,1.8454,1.8455,0,0,0,0,0,0,1.8006,1.8018,1.8124,1.808,1.8094,1.8135,1.8161,1.8167,1.8186,1.8231,1.8238,1.8204,1.8274,1.8285,1.833,1.8346,1.8327,1.8331,1.8452,1.8454,1.8455,1.8445,0,0,0,0,0,0,1.8002,1.8017,1.8032,1.808,1.8096,1.8162,1.8162,1.817,1.8193,1.8195,1.8243,1.8251,1.8274,1.8324,1.8335,1.8351,1.8334,1.8451,1.8453,1.8455,1.8444,1.8446,1.8447,0,0,0,0,0,1.7997,1.8025,1.8032,1.8044,1.8115,1.8162,1.8172,1.8198,1.8194,1.821,1.8239,1.8249,1.8342,1.8328,1.8341,1.8359,1.845,1.8452,1.8454,1.8443,1.8446,1.8447,0,0,0,0,0,0,1.7977,1.8032,1.804,1.8084,1.8119,1.8166,1.8187,1.8199,1.8235,1.8235,1.8266,1.8277,1.8321,1.8344,1.8328,1.8401,1.8397,1.8401,1.8384,1.8387,1.8388,1.8382,1.8337,0,0,0,0,0,1.7978,1.8011,1.8057,1.8092,1.8109,1.8145,1.8166,1.8184,1.8221,1.8235,1.8267,1.8303,1.8341,1.8365,1.8402,1.8448,1.846,1.8466,1.8468,1.8469,1.8473,1.8501,1.8505,1.8462,1.8462,1.8462,0,0,1.798,1.8014,1.8033,1.8089,1.8117,1.8153,1.8157,1.8193,1.822,1.8241,1.8286,1.8311,1.8354,1.84,1.8422,1.8421,1.8488,1.8472,1.8472,1.8476,1.8504,1.8508,1.8512,1.8464,1.8464,1.8463,0,0,1.8002,1.803,1.8063,1.8092,1.8135,1.8159,1.8167,1.8214,1.8232,1.8278,1.8295,1.8328,1.8391,1.8422,1.8445,1.8481,1.8492,1.8492,1.8501,1.8528,1.8531,1.8535,1.8549,1.8554,1.8496,1.8496,1.8496,0,1.7999,1.8051,1.8078,1.8115,1.814,1.8161,1.8195,1.8222,1.8276,1.8293,1.8291,1.8373,1.8403,1.8458,1.8467,1.8484,1.8496,1.8487,1.8528,1.8532,1.8535,1.855,1.8555,1.8495,1.8495,1.8495,1.8495,0,1.8047,1.8083,1.8105,1.8156,1.8184,1.8219,1.8252,1.8277,1.8293,1.8318,1.8366,1.8402,1.8448,1.8462,1.8477,1.8521,1.8519,1.8522,1.8518,1.8539,1.8553,1.8558,1.8495,1.8495,1.8495,1.8495,0,0,1.8057,1.8125,1.8132,1.8157,1.8207,1.8237,1.8274,1.8318,1.834,1.8376,1.8409,1.8464,1.8468,1.8495,1.8514,1.8538,1.8566,1.8539,1.854,1.8544,1.8618,1.8616,1.8622,1.8574,1.8575,1.8576,1.8615,0,1.8087,1.8153,1.8179,1.8234,1.8269,1.8291,1.8323,1.8359,1.8383,1.8418,1.8445,1.8484,1.8486,1.8503,1.8527,1.8557,1.8582,1.8555,1.8607,1.8608,1.8596,1.8629,1.8626,1.8661,1.8621,1.8622,1.8622,0,1.8129,1.8167,1.8225,1.8273,1.8289,1.8317,1.8362,1.8394,1.8435,1.8452,1.8483,1.8501,1.8542,1.8536,1.8594,1.8575,1.8598,1.8617,1.8619,1.8625,1.8617,1.8637,1.8673,1.8678,1.8631,1.863,1.863,0,1.8133,1.8198,1.8242,1.8262,1.8319,1.8339,1.8364,1.8404,1.843,1.8469,1.8487,1.853,1.8554,1.8588,1.8618,1.861,1.8675,1.867,1.8691,1.8691,1.8704,1.8703,1.8745,1.8717,1.8717,1.8717,1.8717,0,1.8164,1.8198,1.8245,1.8272,1.8312,1.8343,1.8383,1.8409,1.8446,1.8479,1.85,1.8532,1.8569,1.8606,1.8629,1.8676,1.8686,1.8702,1.8708,1.87,1.8698,1.8716,1.8715,1.8718,1.8718,1.8718,1.8717,0,1.8175,1.8207,1.8256,1.8307,1.832,1.8348,1.8392,1.842,1.8446,1.8488,1.85,1.8542,1.8586,1.862,1.8677,1.8693,1.8743,1.8748,1.8729,1.8732,1.8752,1.875,1.8807,1.8817,1.8781,1.8781,1.8782,0,1.8192,1.822,1.8274,1.8298,1.8322,1.8361,1.8388,1.842,1.8447,1.8498,1.852,1.8566,1.8604,1.8674,1.871,1.8755,1.8763,1.878,1.877,1.8762,1.8765,1.8764,1.8767,1.8782,1.8782,1.8782,1.8782,0,1.8221,1.8236,1.8274,1.8318,1.835,1.8386,1.8423,1.8441,1.848,1.851,1.8556,1.8586,1.8645,1.8691,1.874,1.8767,1.8782,1.8785,1.8793,1.8786,1.8774,1.8782,1.8734,1.8784,1.8783,1.8783,1.8783,1.8783,1.8237,1.8264,1.8306,1.8348,1.8379,1.8414,1.8443,1.8473,1.8512,1.8563,1.858,1.8627,1.867,1.8737,1.8765,1.8804,1.8804,1.8814,1.8817,1.8819,1.882,1.8767,1.8812,1.8812,1.8812,1.8812,1.8812,0,1.8268,1.8297,1.8335,1.8386,1.842,1.8431,1.8473,1.8501,1.8542,1.8581,1.8619,1.8672,1.8718,1.8758,1.8805,1.8829,1.8837,1.884,1.884,1.8846,1.8816,1.8805,1.8833,1.8833,1.8833,1.8833,1.8833,1.8833,1.8288,1.8334,1.8355,1.8417,1.8446,1.8493,1.8516,1.8549,1.858,1.8639,1.8677,1.8702,1.8743,1.8794,1.8836,1.8847,1.8864,1.8866,1.8879,1.885,1.8848,1.8845,1.8836,1.8869,1.8869,1.8906,1.8906,1.8906]},{"header":{"parameterUnit":"m.s-1","parameterCategory":1,"la1":30.2991,"la2":30.254,"lo1":-89.0895,"lo2":-89.0444,"dy":0.0017,"dx":0.0017,"nx":28,"ny":28,"refTime":"2025-04-09T03:00:00:Z","depth":0,"parameterNumber":3,"parameterNumberName":"V-component_of_WINDS"},"data":[0,0,0,0,0,0,0,0,0,0,0,0,0,0,0,0,0,0,0,0,0,0,0,0,0,0,0,0,0,0,0,0,0,0,0,0,0,0,0,0,0,0,0,0,0,0,0,0,0,0,0,0,0,0,0,0,0,0,-2.7303,-2.7303,0,-2.7364,-2.7365,-2.7366,-2.7466,-2.7468,-2.747,-2.7472,-2.7532,-2.7531,-2.7531,0,0,0,0,0,0,0,0,0,0,0,0,0,-2.7271,-2.7271,-2.7303,-2.7304,-2.7304,-2.7364,-2.7365,-2.7366,-2.7466,-2.7468,-2.7471,-2.7473,-2.7532,-2.7531,-2.7531,0,0,0,0,0,0,0,0,0,0,0,0,0,-2.7304,-2.7271,-2.7303,-2.7362,-2.7368,-2.7364,-2.7365,-2.7366,-2.7466,-2.7468,-2.7471,-2.7474,-2.7532,-2.7531,-2.7531,-2.7474,0,0,-2.753,-2.753,0,0,0,0,0,0,0,0,-2.7302,-2.7305,-2.7352,-2.7358,-2.7364,-2.7411,-2.7376,-2.7402,-2.7465,-2.7428,-2.7472,-2.7475,-2.7489,-2.7492,-2.7498,-2.7477,-2.7479,-2.753,-2.753,-2.753,-2.753,0,0,0,0,0,0,0,-2.7299,-2.7303,-2.7327,-2.7353,-2.736,-2.7385,-2.7392,-2.7381,-2.7442,-2.7432,-2.7439,-2.7445,-2.7493,-2.7497,-2.75,-2.748,-2.753,-2.753,-2.753,-2.753,-2.7416,-2.7414,0,0,0,0,0,0,-2.7289,-2.73,-2.7325,-2.7329,-2.7339,-2.7383,-2.7392,-2.7393,-2.7442,-2.7453,-2.7443,-2.745,-2.7497,-2.75,-2.7502,-2.7438,-2.753,-2.753,-2.753,-2.7419,-2.7416,-2.7413,0,0,0,0,0,0,-2.7288,-2.729,-2.7323,-2.7317,-2.7323,-2.7381,-2.7381,-2.7393,-2.7398,-2.7451,-2.7462,-2.7437,-2.7499,-2.7502,-2.7481,-2.7442,-2.753,-2.753,-2.7423,-2.7418,-2.7414,-2.731,0,0,0,0,0,0,-2.7286,-2.7289,-2.7268,-2.7315,-2.7323,-2.73,-2.7379,-2.7392,-2.7397,-2.7407,-2.7448,-2.7458,-2.7501,-2.748,-2.748,-2.7443,-2.753,-2.7426,-2.7421,-2.7416,-2.7317,-2.7303,-2.729,0,0,0,0,0,-2.7285,-2.7235,-2.7266,-2.7269,-2.7298,-2.7297,-2.7302,-2.7354,-2.7394,-2.7373,-2.7408,-2.7456,-2.7447,-2.7477,-2.7478,-2.744,-2.7429,-2.7422,-2.7416,-2.7323,-2.7306,-2.7291,0,0,0,0,0,0,-2.718,-2.7242,-2.7277,-2.7242,-2.7264,-2.7315,-2.729,-2.7333,-2.7343,-2.7352,-2.7416,-2.7424,-2.7394,-2.7416,-2.7448,-2.7388,-2.7445,-2.7439,-2.7375,-2.7358,-2.7345,-2.734,-2.7529,0,0,0,0,0,-2.7153,-2.7148,-2.7203,-2.7166,-2.7176,-2.7231,-2.7233,-2.7271,-2.7296,-2.7305,-2.7338,-2.736,-2.7362,-2.7362,-2.7367,-2.7322,-2.7332,-2.7296,-2.7283,-2.7272,-2.7264,-2.7243,-2.7227,-2.7391,-2.7391,-2.7392,0,0,-2.7096,-2.713,-2.7123,-2.7146,-2.7168,-2.7161,-2.7238,-2.7227,-2.7223,-2.7304,-2.7285,-2.731,-2.7339,-2.7305,-2.7292,-2.7322,-2.7222,-2.7263,-2.7254,-2.7253,-2.7234,-2.7219,-2.7205,-2.7387,-2.7388,-2.7388,0,0,-2.699,-2.7015,-2.6987,-2.7008,-2.704,-2.7078,-2.7071,-2.7116,-2.7136,-2.7119,-2.718,-2.7176,-2.7178,-2.7196,-2.7205,-2.7108,-2.7153,-2.7108,-2.7036,-2.7015,-2.7002,-2.699,-2.6955,-2.6942,-2.7101,-2.7101,-2.71,0,-2.6915,-2.6908,-2.6967,-2.6953,-2.6962,-2.7037,-2.701,-2.7027,-2.7058,-2.7062,-2.7096,-2.7101,-2.7125,-2.7097,-2.7074,-2.7079,-2.7073,-2.7102,-2.6999,-2.6988,-2.6979,-2.6946,-2.6932,-2.7095,-2.7095,-2.7096,-2.7097,0,-2.6814,-2.6808,-2.6782,-2.6812,-2.6818,-2.6797,-2.6853,-2.6852,-2.6891,-2.6925,-2.6907,-2.6939,-2.6952,-2.6949,-2.6986,-2.6926,-2.6944,-2.6987,-2.7046,-2.6956,-2.6926,-2.6914,-2.7086,-2.7089,-2.709,-2.7092,0,0,-2.664,-2.6705,-2.6694,-2.6709,-2.6752,-2.6748,-2.6732,-2.6746,-2.6743,-2.6763,-2.675,-2.6752,-2.6793,-2.6803,-2.6844,-2.6825,-2.6745,-2.6871,-2.6873,-2.6845,-2.6681,-2.6646,-2.6631,-2.6777,-2.6775,-2.6773,-2.6678,0,-2.6541,-2.6516,-2.657,-2.6531,-2.6527,-2.66,-2.6585,-2.6609,-2.6641,-2.6642,-2.6677,-2.6676,-2.6731,-2.6738,-2.6723,-2.6758,-2.6713,-2.6766,-2.6764,-2.6763,-2.6752,-2.6615,-2.6578,-2.6487,-2.6667,-2.6665,-2.6663,0,-2.6421,-2.6436,-2.6397,-2.6444,-2.6444,-2.6429,-2.6447,-2.6448,-2.6477,-2.6502,-2.6514,-2.6563,-2.6549,-2.6608,-2.659,-2.6625,-2.6628,-2.6645,-2.6643,-2.6643,-2.6706,-2.661,-2.6459,-2.6445,-2.6646,-2.6647,-2.6648,0,-2.6296,-2.6307,-2.6286,-2.6297,-2.635,-2.6339,-2.636,-2.6393,-2.6398,-2.6414,-2.6418,-2.6432,-2.6439,-2.6448,-2.6499,-2.6537,-2.6475,-2.6537,-2.6494,-2.6492,-2.6475,-2.6475,-2.6321,-2.648,-2.648,-2.648,-2.648,0,-2.6178,-2.6151,-2.6231,-2.6217,-2.619,-2.6253,-2.6224,-2.6253,-2.6281,-2.6275,-2.6339,-2.6331,-2.64,-2.6399,-2.6439,-2.6418,-2.6421,-2.644,-2.645,-2.6433,-2.643,-2.6434,-2.644,-2.6477,-2.6477,-2.6478,-2.6479,0,-2.6033,-2.6085,-2.6066,-2.612,-2.6133,-2.611,-2.6155,-2.6145,-2.6182,-2.6173,-2.6174,-2.6232,-2.6235,-2.6287,-2.6301,-2.6328,-2.629,-2.6314,-2.628,-2.6287,-2.624,-2.6243,-2.6081,-2.6063,-2.6235,-2.6233,-2.6232,0,-2.5953,-2.5934,-2.5986,-2.5987,-2.6006,-2.6006,-2.6013,-2.6075,-2.6079,-2.6113,-2.6098,-2.6107,-2.6117,-2.6119,-2.6161,-2.6173,-2.6196,-2.6139,-2.6197,-2.6181,-2.6193,-2.6193,-2.6191,-2.6125,-2.6123,-2.6121,-2.6119,0,-2.5805,-2.5833,-2.584,-2.5857,-2.5863,-2.5879,-2.5899,-2.5896,-2.5965,-2.5966,-2.5971,-2.5979,-2.5995,-2.6002,-2.6022,-2.6044,-2.6092,-2.6101,-2.6091,-2.6072,-2.6053,-2.6061,-2.6244,-2.6104,-2.6105,-2.6106,-2.6107,-2.6108,-2.569,-2.5677,-2.5712,-2.5718,-2.574,-2.5758,-2.5751,-2.5788,-2.5794,-2.5812,-2.5849,-2.5847,-2.5879,-2.5911,-2.5929,-2.5929,-2.5958,-2.5944,-2.594,-2.5935,-2.5925,-2.6055,-2.5933,-2.5934,-2.5934,-2.5934,-2.5935,0,-2.5544,-2.5571,-2.5577,-2.5603,-2.5608,-2.5657,-2.5682,-2.5682,-2.5681,-2.5707,-2.5716,-2.5722,-2.5731,-2.5775,-2.5788,-2.578,-2.5802,-2.5781,-2.5781,-2.5785,-2.5899,-2.5906,-2.5763,-2.5763,-2.5763,-2.5763,-2.5763,-2.5763,-2.5469,-2.545,-2.5482,-2.5474,-2.5501,-2.5502,-2.5512,-2.5528,-2.555,-2.5554,-2.5561,-2.5591,-2.5625,-2.5642,-2.5651,-2.5664,-2.5665,-2.5636,-2.5656,-2.5761,-2.5777,-2.5793,-2.5799,-2.5636,-2.5636,-2.5542,-2.5541,-2.5541]}]]